Regional Weather Roundup
Issued by NWS

Home | Current Version | Previous Version | Text Only | Print | Product List | Glossary On
Versions: 1 2 3 4 5 6 7 8 9 10 11 12 13 14 15 16 17 18 19 20 21 22 23 24 25 26 27 28 29 30 31 32 33 34 35 36 37 38 39 40 41 42 43 44 45 46 47 48 49 50
000
ASUS43 KDTX 250301
RWRMI
MICHIGAN HOURLY REGIONAL WEATHER ROUNDUP
NATIONAL WEATHER SERVICE DETROIT/PONTIAC MI
1100 PM EDT WED AUG 24 2016

NOTE: "FAIR" INDICATES FEW OR NO CLOUDS BELOW 12,000 FEET WITH NO
SIGNIFICANT WEATHER AND/OR OBSTRUCTION TO VISIBILITY.

MIZ047>049-052>055-059>063-066>070-074>076-081>083-250400-
SOUTHEAST LOWER MICHIGAN

CITY           SKY/WX    TMP DP  RH WIND       PRES   REMARKS
ADRIAN         PTCLDY    71  71 100 SW3       29.97F
ALMA           CLEAR     73  72  96 W10       29.95F
ANN ARBOR      CLOUDY    74  73  97 S3        29.96F
BAD AXE        PTCLDY    72  71  97 S6        29.94F
CARO           PTCLDY    73  71  93 SW3       29.94S
DETROIT CITY   MOCLDY    76  75  97 SW5       29.96F
DETROIT        PTCLDY    76  73  91 S5        29.96F
FLINT          MOCLDY    76  71  85 SW3       29.95F
GROSSE ILE     CLOUDY    75  72  89 CALM      29.95F
HILLSDALE      CLEAR     72  70  95 SW3       29.98S
HOWELL         CLEAR     73  71  96 CALM      29.96F

CITY           SKY/WX    TMP DP  RH WIND       PRES   REMARKS
JACKSON        CLEAR     72  72 100 CALM      29.97S
LAMBERTVILLE   CLOUDY    75  73  91 W7        29.97S
LANSING        MOCLDY    74  71  91 SW7       29.97S
LAPEER         MOCLDY    74  71  91 SW5       29.96S
MASON          PTCLDY    73  71  93 CALM      29.96F
MONROE         CLOUDY    75  73  95 SW3       29.95S
MT. CLEMENS    CLOUDY    74  74 100 CALM      29.95S
PONTIAC        CLEAR     74  71  91 SW3       29.96F
PORT HURON     FOG       70  70 100 CALM      29.96F VSB 3/4
TRI CITIES     PTCLDY    75  72  90 SW7       29.95R
MIDLAND        FAIR      74  71  90 SW6       29.93S
TROY           PTCLDY    76  73  91 CALM      29.98S
SAGINAW HB     MOCLDY    73  70  88 SW6       29.93S
$$
MIZ043>046-050>051-056>058-064>065-071>073-077>080-250400-
SOUTHWEST LOWER MICHIGAN

CITY           SKY/WX    TMP DP  RH WIND       PRES   REMARKS
BATTLE CREEK   MOCLDY    71  71 100 S5        29.98S
BENTON HARBOR  CLEAR     74  70  87 CALM      29.97S
BIG RAPIDS     CLOUDY    74  72  92 SW5       29.95S
COLDWATER      CLEAR     72  72  99 SW6       29.98S
FREMONT        CLOUDY    72  72  98 SW3       29.95R
HOLLAND        MOCLDY    73  71  93 SW3       29.96S
GRAND RAPIDS   PTCLDY    74  70  87 W3        29.96S
IONIA          FAIR      72  69  90 CALM      29.96R
KALAMAZOO      PTCLDY    74  70  87 W3        29.97S
LUDINGTON      PTCLDY    73  72  97 SW7       29.92S
MARSHALL       CLEAR     72  72 100 W3        29.97S
MOUNT PLEASANT MOCLDY    74  71  89 SW5       29.94S
MUSKEGON       CLOUDY    76  73  91 S6        29.95S
SOUTH HAVEN    CLEAR     73  72  96 CALM      29.97S
$$
MIZ016>042-250400-
NORTHERN LOWER MICHIGAN

CITY           SKY/WX    TMP DP  RH WIND       PRES   REMARKS
ALPENA         PTCLDY    75  67  76 SW7       29.89S
BEAVER ISLAND  CLOUDY    70  69  97 SW5       29.89R
BELLAIRE       CLOUDY    74  69  82 CALM      29.90S
CADILLAC       CLOUDY    72  69  90 SW6       29.95R
CHARLEVOIX     CLOUDY    73  71  91 SW8       29.92S
FRANKFORT      PTCLDY    73  70  91 SW3       29.91S
GAYLORD        PTCLDY    71  67  87 SW7       29.93R
GRAYLING       PTCLDY    73  69  87 CALM      29.94S
HARBOR SPRINGS CLOUDY    73  70  91 W6        29.88S
HOUGHTON LAKE  MOCLDY    73  68  84 SW7       29.95R
MANISTEE       CLEAR     73  70  90 SW5       29.92R
OSCODA         CLEAR     73  71  93 SW10      29.90S
PELLSTON       CLOUDY    73  68  84 W9        29.89R
ROGERS CITY    PTCLDY    74  68  81 SW6       29.88F
TRAVERSE CITY  CLEAR     75  69  81 SW6       29.90R
$$
MIZ007>008-015-250400-
EASTERN UPPER MICHIGAN

CITY           SKY/WX    TMP DP  RH WIND       PRES   REMARKS
KINROSS        CLOUDY    69  68  96 W5        29.86S
MACKINAC ISLAN CLOUDY    71  71 100 W13G18    29.87R
NEWBERRY       CLEAR     66  65  97 SW7       29.86S FOG
S. S. MARIE    CLOUDY    70  69  97 W6        29.85R
$$
MIZ004>006-011>014-085-250400-
CENTRAL UPPER MICHIGAN

CITY           SKY/WX    TMP DP  RH WIND       PRES   REMARKS
MANISTIQUE     PTCLDY    68  65  92 CALM      29.87R FOG
ESCANABA       CLEAR     68  67  96 W3        29.88R
MENOMINEE      CLEAR    N/A N/A N/A W5        29.91R
SAWYER-GWINN   PTCLDY    67  65  91 S5        29.89S
$$
MIZ001>003-009>011-084-250400-
WESTERN UPPER MICHIGAN

CITY           SKY/WX    TMP DP  RH WIND       PRES   REMARKS
IRON MOUNTAIN  PTCLDY    69  64  84 W3        29.90R
HOUGHTON       PTCLDY    71  60  68 W9        29.83S
COPPER HARBOR    N/A     74  61  63 VRB6      29.79F
IRONWOOD       CLOUDY    66  58  75 W9        29.92R
$$

ABBREVIATIONS USED IN REMARKS
   TC - TEMPERATURE IN CELSIUS
  WCI - WIND CHILL INDEX
   HX - HEAT INDEX
  VSB - VISIBILITY





USA.gov is the U.S. government's official web portal to all federal, state and local government web resources and services.